This is the latest recevied weather packets stored in our database for station/object SP1BMW-13. If no packets are shown the sender has not sent any weather packets the latest 10 day(s).
| Time | Temp. | Humidity | Pressure | Rain* | Wind** | Luminosity | Snow |
|---|---|---|---|---|---|---|---|
| 1787886498 | 17.78° C | 61% | 1013.3 hPa | 0 mm | 0.45 m/s, 14° | 0 W/m² | - |
| 1787886438 | 17.78° C | 61% | 1013.5 hPa | 0 mm | 1.79 m/s, 52° | 0 W/m² | - |
| 1787886379 | 17.78° C | 61% | 1013.5 hPa | 0 mm | 0.89 m/s, 143° | 0 W/m² | - |
| 1787886318 | 17.78° C | 61% | 1013.5 hPa | 0 mm | 0.45 m/s, 59° | 0 W/m² | - |
| 1787886258 | 17.78° C | 61% | 1013.4 hPa | 0 mm | 0.89 m/s, 51° | 0 W/m² | - |
| 1787886198 | 17.78° C | 61% | 1013.5 hPa | 0 mm | 0.89 m/s, 26° | 0 W/m² | - |
| 1787886137 | 17.78° C | 61% | 1013.5 hPa | 0 mm | 0.89 m/s, 181° | 0 W/m² | - |
| 1787886078 | 17.78° C | 61% | 1013.7 hPa | 0 mm | 0.89 m/s, 27° | 0 W/m² | - |
| 1787886017 | 17.78° C | 61% | 1013.4 hPa | 0 mm | 1.79 m/s, 44° | 0 W/m² | - |
| 1787885957 | 17.78° C | 61% | 1013.8 hPa | 0 mm | 0.89 m/s, 114° | 0 W/m² | - |
| 1787885898 | 17.78° C | 61% | 1013.6 hPa | 0 mm | 1.79 m/s, 86° | 0 W/m² | - |
| 1787885838 | 17.78° C | 61% | 1013.5 hPa | 0 mm | 1.34 m/s, 29° | 0 W/m² | - |
| 1787885778 | 17.78° C | 61% | 1013.6 hPa | 0 mm | 1.34 m/s, 17° | 0 W/m² | - |
| 1787885717 | 17.78° C | 61% | 1013.6 hPa | 0 mm | 1.79 m/s, 97° | 0 W/m² | - |
| 1787885657 | 17.78° C | 61% | 1013.5 hPa | 0 mm | 0.45 m/s, 47° | 0 W/m² | - |
| 1787885598 | 17.78° C | 61% | 1013.5 hPa | 0 mm | 1.34 m/s, 18° | 0 W/m² | - |
| 1787885538 | 17.78° C | 61% | 1013.4 hPa | 0 mm | 0.89 m/s, 38° | 0 W/m² | - |
| 1787885477 | 17.78° C | 61% | 1013.4 hPa | 0 mm | 0.45 m/s, 101° | 0 W/m² | - |
| 1787885417 | 17.78° C | 61% | 1013.4 hPa | 0 mm | 0.89 m/s, 105° | 0 W/m² | - |
| 1787885358 | 17.78° C | 60% | 1013.4 hPa | 0 mm | 0.89 m/s, 178° | 0 W/m² | - |
| 1787885298 | 17.78° C | 61% | 1013.4 hPa | 0 mm | 1.34 m/s, 13° | 0 W/m² | - |
| 1787885238 | 17.78° C | 60% | 1013.5 hPa | 0 mm | 0.89 m/s, 218° | 0 W/m² | - |
| 1787885178 | 17.78° C | 61% | 1013.4 hPa | 0 mm | 0.89 m/s, 149° | 0 W/m² | - |
| 1787885117 | 17.78° C | 60% | 1013.5 hPa | 0 mm | 0.89 m/s, 73° | 0 W/m² | - |
| 1787885058 | 17.78° C | 60% | 1013.6 hPa | 0 mm | 1.79 m/s, 73° | 0 W/m² | - |
* Rain latest hour (hover to see other rain measurements)
** Current wind speed in m/s (hover to see current wind gust speed)